Location: Middlebury
(44.0153°N, 73.1678°W)
Time: 20:30:38
(UTC-04:00)

DIWATA 2B (PO-101) - Pass Details

Date: 25 June 2024
Orbit: 575 x 586 km, 98.1° (Epoch: 23 July)

Event Time Altitude Azimuth Distance (km) Brightness Sun altitude
Rises 03:25:04 0° 132° (SE) 2,778 ? -14.4°
Reaches altitude 10° 03:27:33 10° 117° (ESE) 1,886 ? -14.1°
Maximum altitude 03:30:43 22° 66° (ENE) 1,285 ? -13.8°
Drops below altitude 10° 03:33:53 10° 15° (NNE) 1,901 ? -13.5°
Sets 03:36:24 0° 0° (N) 2,807 ? -13.2°
